• In Hungary
  • List of Countries
  • For 7 days
  • Water Temperature
  • Satellite Maps
  • Weather Map
  • News
  • Weather Widgets
  • user-avatar
    Login

    Hourly Weather Babice

    Today, 24 October, Wednesday

    Time Temperature Precipitation Wind Pressure Humidity
    00:00 +9°C° 0.8 mm 8 mps 731 mmHg 80%
    01:00 +9°C° 0.8 mm 8 mps 731 mmHg 82%
    02:00 +9°C° 1.5 mm 8 mps 730 mmHg 82%
    03:00 +7°C° 1.5 mm 8 mps 730 mmHg 82%
    04:00 +7°C° 1.5 mm 8 mps 729 mmHg 82%
    05:00 +7°C° 0.9 mm 8 mps 730 mmHg 80%
    06:00 +6°C° 0.9 mm 8 mps 730 mmHg 78%
    07:00 +5°C° 0.9 mm 8 mps 731 mmHg 76%
    08:00 +6°C° 0.1 mm 9 mps 731 mmHg 69%
    09:00 +6°C° 0.1 mm 9 mps 732 mmHg 63%
    10:00 +6°C° 0.1 mm 10 mps 733 mmHg 57%
    11:00 +6°C° 0.1 mm 10 mps 733 mmHg 57%
    12:00 +6°C° 0.1 mm 10 mps 734 mmHg 56%
    13:00 +6°C° 0.1 mm 10 mps 734 mmHg 56%
    14:00 +6°C° 0.1 mm 9 mps 735 mmHg 56%
    15:00 +6°C° 0.1 mm 8 mps 735 mmHg 57%
    16:00 +5°C° 0.1 mm 7 mps 736 mmHg 57%
    17:00 +5°C° 0 mm 7 mps 736 mmHg 59%
    18:00 +4°C° 0 mm 6 mps 737 mmHg 62%
    19:00 +3°C° 0 mm 5 mps 738 mmHg 64%
    20:00 +3°C° 0 mm 5 mps 738 mmHg 66%
    21:00 +3°C° 0 mm 5 mps 739 mmHg 68%
    22:00 +3°C° 0 mm 4 mps 739 mmHg 70%
    23:00 +3°C° 0 mm 4 mps 739 mmHg 73%

    Tomorrow, 25 October, Thursday

    Time Temperature Precipitation Wind Pressure Humidity
    00:00 +3°C° 0 mm 4 mps 739 mmHg 76%
    01:00 +3°C° 0 mm 3 mps 740 mmHg 79%
    02:00 +2°C° 0 mm 3 mps 739 mmHg 81%
    03:00 +2°C° 0 mm 3 mps 739 mmHg 82%
    04:00 +2°C° 0 mm 3 mps 738 mmHg 84%
    05:00 +3°C° 0.4 mm 3 mps 738 mmHg 84%
    06:00 +4°C° 0.4 mm 3 mps 737 mmHg 84%
    07:00 +5°C° 0.4 mm 4 mps 737 mmHg 85%
    08:00 +6°C° 0.6 mm 5 mps 736 mmHg 83%
    09:00 +8°C° 0.6 mm 6 mps 736 mmHg 82%
    10:00 +10°C° 0.6 mm 7 mps 736 mmHg 80%
    11:00 +11°C° 0.1 mm 7 mps 735 mmHg 77%
    12:00 +11°C° 0.1 mm 7 mps 735 mmHg 74%
    13:00 +12°C° 0.1 mm 8 mps 734 mmHg 71%
    14:00 +11°C° 0.1 mm 7 mps 734 mmHg 73%
    15:00 +11°C° 0.1 mm 6 mps 734 mmHg 75%
    16:00 +10°C° 0.1 mm 5 mps 734 mmHg 77%
    17:00 +10°C° 0.1 mm 5 mps 735 mmHg 79%
    18:00 +10°C° 0.1 mm 5 mps 735 mmHg 81%
    19:00 +10°C° 0.1 mm 5 mps 735 mmHg 83%
    20:00 +10°C° 0.2 mm 4 mps 736 mmHg 84%
    21:00 +10°C° 0.2 mm 4 mps 736 mmHg 84%
    22:00 +9°C° 0.2 mm 3 mps 736 mmHg 85%
    23:00 +9°C° 0.1 mm 3 mps 736 mmHg 85%

    Day after tomorrow, 26 October, Friday

    Time Temperature Precipitation Wind Pressure Humidity
    00:00 +9°C° 0.1 mm 3 mps 736 mmHg 86%
    01:00 +9°C° 0.1 mm 2 mps 736 mmHg 86%
    02:00 +9°C° 0.1 mm 2 mps 736 mmHg 87%
    03:00 +8°C° 0.1 mm 2 mps 736 mmHg 88%
    04:00 +8°C° 0.1 mm 2 mps 736 mmHg 89%
    05:00 +8°C° 0 mm 2 mps 736 mmHg 89%
    06:00 +8°C° 0 mm 2 mps 736 mmHg 88%
    07:00 +8°C° 0 mm 2 mps 736 mmHg 88%
    08:00 +9°C° 0 mm 3 mps 736 mmHg 84%
    09:00 +10°C° 0 mm 4 mps 735 mmHg 80%
    10:00 +11°C° 0 mm 4 mps 735 mmHg 76%
    11:00 +12°C° 0 mm 5 mps 735 mmHg 73%
    12:00 +13°C° 0 mm 5 mps 734 mmHg 69%
    13:00 +13°C° 0 mm 5 mps 734 mmHg 65%
    14:00 +13°C° 0 mm 5 mps 733 mmHg 66%
    15:00 +13°C° 0 mm 5 mps 733 mmHg 68%
    16:00 +12°C° 0 mm 4 mps 732 mmHg 69%
    17:00 +12°C° 0 mm 5 mps 732 mmHg 71%
    18:00 +10°C° 0 mm 5 mps 732 mmHg 73%
    19:00 +9°C° 0 mm 5 mps 732 mmHg 75%
    20:00 +9°C° 0 mm 5 mps 732 mmHg 76%
    21:00 +9°C° 0 mm 5 mps 732 mmHg 76%
    22:00 +8°C° 0 mm 5 mps 732 mmHg 77%
    23:00 +8°C° 0 mm 5 mps 732 mmHg 76%

    27 October, Saturday

    Time Temperature Precipitation Wind Pressure Humidity
    00:00 +8°C° 0 mm 5 mps 733 mmHg 76%
    01:00 +7°C° 0 mm 5 mps 733 mmHg 75%
    02:00 +7°C° 0 mm 5 mps 733 mmHg 74%
    03:00 +7°C° 0 mm 4 mps 733 mmHg 74%
    04:00 +6°C° 0 mm 4 mps 733 mmHg 73%
    05:00 +6°C° 0 mm 4 mps 734 mmHg 71%
    06:00 +5°C° 0 mm 3 mps 734 mmHg 70%
    07:00 +5°C° 0 mm 3 mps 734 mmHg 68%
    08:00 +5°C° 0 mm 3 mps 735 mmHg 65%
    09:00 +7°C° 0 mm 3 mps 735 mmHg 62%
    10:00 +7°C° 0 mm 3 mps 735 mmHg 59%
    11:00 +8°C° 0 mm 3 mps 735 mmHg 58%
    12:00 +8°C° 0 mm 2 mps 735 mmHg 56%
    13:00 +8°C° 0 mm 2 mps 735 mmHg 55%
    14:00 +8°C° 0 mm 2 mps 736 mmHg 57%
    15:00 +9°C° 0 mm 1 mps 736 mmHg 59%
    16:00 +9°C° 0 mm 1 mps 736 mmHg 61%
    17:00 +8°C° 0 mm 1 mps 736 mmHg 62%
    18:00 +7°C° 0 mm 0 mps 736 mmHg 63%
    19:00 +6°C° 0 mm 0 mps 737 mmHg 64%
    20:00 +6°C° 0 mm 0 mps 737 mmHg 65%
    21:00 +7°C° 0 mm 1 mps 737 mmHg 66%
    22:00 +7°C° 0 mm 1 mps 737 mmHg 67%
    23:00 +7°C° 0 mm 1 mps 737 mmHg 68%

    28 October, Sunday

    Time Temperature Precipitation Wind Pressure Humidity
    00:00 +6°C° 0 mm 2 mps 737 mmHg 70%
    01:00 +6°C° 0 mm 2 mps 737 mmHg 71%
    02:00 +6°C° 0.1 mm 2 mps 737 mmHg 73%
    03:00 +4°C° 0.1 mm 3 mps 737 mmHg 75%
    04:00 +4°C° 0.1 mm 3 mps 737 mmHg 76%
    05:00 +4°C° 0.2 mm 3 mps 737 mmHg 77%
    06:00 +4°C° 0.2 mm 4 mps 737 mmHg 78%
    07:00 +4°C° 0.2 mm 4 mps 737 mmHg 79%
    08:00 +4°C° 0.4 mm 4 mps 737 mmHg 79%
    09:00 +3°C° 0.4 mm 5 mps 737 mmHg 79%
    10:00 +4°C° 0.4 mm 6 mps 737 mmHg 78%
    11:00 +5°C° 0.7 mm 5 mps 736 mmHg 80%
    12:00 +3°C° 0.7 mm 5 mps 736 mmHg 82%
    13:00 +3°C° 0.7 mm 5 mps 736 mmHg 83%
    14:00 +3°C° 1 mm 5 mps 736 mmHg 85%
    15:00 +3°C° 1 mm 5 mps 736 mmHg 86%
    16:00 +3°C° 1 mm 5 mps 735 mmHg 88%
    17:00 +3°C° 0.8 mm 5 mps 735 mmHg 88%
    18:00 +3°C° 0.8 mm 5 mps 735 mmHg 89%
    19:00 +3°C° 0.8 mm 5 mps 735 mmHg 89%
    20:00 +3°C° 1.2 mm 5 mps 734 mmHg 90%
    21:00 +4°C° 1.2 mm 4 mps 734 mmHg 91%
    22:00 +5°C° 1.2 mm 4 mps 733 mmHg 91%
    23:00 +5°C° 1.1 mm 4 mps 733 mmHg 92%

    29 October, Monday

    Time Temperature Precipitation Wind Pressure Humidity
    00:00 +5°C° 1.1 mm 3 mps 732 mmHg 93%
    01:00 +5°C° 1.1 mm 3 mps 731 mmHg 94%
    02:00 +7°C° 0.3 mm 3 mps 731 mmHg 94%
    03:00 +7°C° 0.3 mm 3 mps 730 mmHg 94%
    04:00 +7°C° 0.3 mm 3 mps 730 mmHg 94%
    05:00 +7°C° 0.7 mm 2 mps 729 mmHg 94%
    06:00 +8°C° 0.7 mm 2 mps 729 mmHg 94%
    07:00 +8°C° 0.7 mm 2 mps 729 mmHg 93%
    08:00 +9°C° 0.2 mm 2 mps 729 mmHg 92%
    09:00 +9°C° 0.2 mm 2 mps 728 mmHg 91%
    10:00 +10°C° 0.2 mm 2 mps 728 mmHg 90%
    11:00 +12°C° 0.1 mm 2 mps 728 mmHg 90%
    12:00 +12°C° 0.1 mm 2 mps 728 mmHg 89%
    13:00 +13°C° 0.1 mm 2 mps 728 mmHg 89%
    14:00 +13°C° 0.1 mm 2 mps 728 mmHg 89%
    15:00 +13°C° 0.1 mm 2 mps 728 mmHg 90%
    16:00 +13°C° 0.1 mm 2 mps 728 mmHg 91%
    17:00 +12°C° 0 mm 3 mps 728 mmHg 91%
    18:00 +12°C° 0 mm 3 mps 728 mmHg 92%
    19:00 +12°C° 0 mm 3 mps 728 mmHg 92%
    20:00 +12°C° 0 mm 3 mps 728 mmHg 92%
    21:00 +12°C° 0 mm 3 mps 728 mmHg 92%
    22:00 +12°C° 0 mm 3 mps 728 mmHg 93%
    23:00 +12°C° 0 mm 3 mps 728 mmHg 92%

    30 October, Tuesday

    Time Temperature Precipitation Wind Pressure Humidity
    00:00 +11°C° 0 mm 3 mps 728 mmHg 92%
    01:00 +11°C° 0 mm 3 mps 728 mmHg 92%
    02:00 +11°C° 0 mm 3 mps 727 mmHg 90%
    03:00 +12°C° 0 mm 3 mps 727 mmHg 89%
    04:00 +12°C° 0 mm 4 mps 727 mmHg 88%
    05:00 +12°C° 0 mm 4 mps 727 mmHg 88%
    06:00 +12°C° 0 mm 4 mps 727 mmHg 88%
    07:00 +12°C° 0 mm 4 mps 727 mmHg 87%
    08:00 +13°C° 0 mm 5 mps 728 mmHg 83%
    09:00 +14°C° 0 mm 5 mps 728 mmHg 78%
    10:00 +15°C° 0 mm 6 mps 729 mmHg 74%
    11:00 +15°C° 0 mm 5 mps 729 mmHg 72%
    12:00 +15°C° 0 mm 4 mps 729 mmHg 70%
    13:00 +16°C° 0 mm 3 mps 729 mmHg 68%
    14:00 +15°C° 0.1 mm 2 mps 730 mmHg 72%
    15:00 +14°C° 0.1 mm 2 mps 730 mmHg 75%
    16:00 +14°C° 0.1 mm 1 mps 730 mmHg 79%
    17:00 +13°C° 0.1 mm 2 mps 730 mmHg 80%
    18:00 +12°C° 0.1 mm 2 mps 730 mmHg 80%
    19:00 +12°C° 0.1 mm 2 mps 731 mmHg 81%
    20:00 +10°C° 0.2 mm 3 mps 731 mmHg 82%
    21:00 +10°C° 0.2 mm 3 mps 731 mmHg 83%
    22:00 +8°C° 0.2 mm 4 mps 731 mmHg 83%
    23:00 +8°C° 0.3 mm 4 mps 732 mmHg 83%
    Show more